Location: Trebic
(49.2170°N, 15.8830°E)
Time: 18:12:31
(UTC+02:00)

Vanguard 1 - Visible Passes

Search period start: 22 July 2019 00:00
Search period end: 01 August 2019 00:00
Orbit: 653 x 3830 km, 34.3° (Epoch: 22 July)

Date Brightness Start Highest point End Pass type
(mag) Time Alt. Az. Time Alt. Az. Time Alt. Az.
22 Jul 13.2 01:39:26 10° W 01:57:48 34° SW 02:15:41 10° SSE visible
22 Jul 13.6 04:12:07 10° WSW 04:18:57 12° WSW 04:25:27 10° SW visible
22 Jul 12.8 21:15:34 10° WSW 21:30:42 50° S 21:52:17 10° ESE visible
22 Jul 13.0 23:36:45 10° W 23:54:56 47° SSW 00:16:06 10° SE visible
23 Jul 13.3 02:01:16 10° W 02:18:20 29° SW 02:34:58 10° S visible
23 Jul 12.8 21:36:17 10° WSW 21:51:41 51° S 22:13:24 10° ESE visible
23 Jul 13.0 23:57:54 10° W 00:15:53 43° SSW 00:33:32 16° SE visible
24 Jul 13.3 02:23:33 10° W 02:38:45 23° SW 02:45:48 20° SSW visible
24 Jul 12.8 21:57:06 10° WSW 22:12:43 50° S 22:34:24 10° ESE visible
25 Jul 13.1 00:19:12 10° W 00:36:44 39° SSW 00:49:36 23° SSE visible
25 Jul 13.5 02:46:41 10° W 02:59:04 18° SW 03:02:02 17° SW visible
25 Jul 12.9 22:18:00 10° WSW 22:33:44 48° S 22:54:18 12° SE visible
26 Jul 13.2 00:40:40 10° W 00:57:30 33° SSW 01:06:48 26° S visible
26 Jul 13.7 03:11:58 10° WSW 03:19:17 12° SW 03:19:18 12° SW visible
26 Jul 12.9 22:38:59 10° W 22:54:45 45° SSW 23:12:00 17° SE visible
27 Jul 13.3 01:02:25 10° W 01:18:10 28° SW 01:24:32 25° SSW visible
27 Jul 13.0 23:00:05 10° W 23:15:43 41° SSW 23:30:01 21° SSE visible
28 Jul 13.4 01:24:40 10° W 01:38:45 23° SW 01:42:35 22° SSW visible
28 Jul 12.7 21:00:07 10° WSW 21:13:10 47° S 21:33:25 10° ESE visible
28 Jul 13.1 23:21:19 10° W 23:36:38 37° SSW 23:48:16 24° SSE visible
29 Jul 13.6 01:47:49 10° WSW 01:59:13 17° SW 02:00:51 17° SW visible
29 Jul 12.8 21:20:58 10° WSW 21:34:09 45° S 21:54:07 10° SE visible
29 Jul 13.2 23:42:45 10° W 23:57:29 32° SSW 00:06:42 24° S visible
30 Jul 13.8 02:13:30 10° WSW 02:19:18 12° SW 02:19:18 12° SW visible
30 Jul 12.9 21:41:55 10° WSW 21:55:08 42° SSW 22:12:41 14° SE visible
31 Jul 13.4 00:04:30 10° W 00:18:16 26° SW 00:25:17 22° S visible
31 Jul 13.0 22:02:59 10° W 22:16:07 38° SSW 22:31:23 17° SSE visible
